sat.trackr.live / text

‹ back to catalog

STARLINK-32700

NORAD 62311 · 2024-239L

PAYLOAD ACTIVE UNKNOWN

§ Identity

Operator
Country
US
Launch date
2024-12-13
Launch site
AFWTR
Launch vehicle
Mass (kg)
RCS (m²)

Purposes: comms

External: N2YO · Heavens-Above · Gunter

§ Orbital elements

Epoch: 2026-05-25T02:47:24.307584Z

Period
94.11 min
Inclination
53.1587°
Eccentricity
0.0001345
Mean motion
15.30204694 rev/d
Perigee alt
474.3 km
Apogee alt
476.1 km
Semi-major
6,853.3 km
B*
5.9302e-4
RAAN
186.2496°
Arg perigee
92.3211°
Mean anomaly
267.7943°
Rev number
8,125

§ Raw data

STARLINK-327001 62311U 24239L   26145.11625356  .00017248  00000+0  59302-3 0  99932 62311  53.1587 186.2496 0001345  92.3211 267.7943 15.30204694 81259

JSON: /api/v1/satellites/62311 · /tle

For live sub-satellite position, see the globe view (requires WebGL).

§ Visibility from observer

Set your observer location to see the next 7 days of passes ≥ 10°. The values pass through the URL so the page stays shareable.

No JS? Fill the form by hand. The geolocation button needs JavaScript.